• Em Portugal
  • Lista de países
  • Para 7 dias
  • Temperatura da água
  • Mapas de satélite
  • Mapa do tempo
  • Widgets de tempo
  • user-avatar
    Iniciar Sessão

    Previsão horária em Marinka

    Hoje, 19 Outubro, Sexta-feira

    Tempo Temperatura Precipitação Vento Pressão Humidade
    00:00 +16°C° 0 mm 3 m/s 751 mmHg 52%
    01:00 +14°C° 0 mm 3 m/s 751 mmHg 54%
    02:00 +14°C° 0 mm 3 m/s 751 mmHg 56%
    03:00 +13°C° 0 mm 3 m/s 751 mmHg 61%
    04:00 +13°C° 0 mm 3 m/s 751 mmHg 63%
    05:00 +12°C° 0 mm 3 m/s 751 mmHg 65%
    06:00 +12°C° 0 mm 3 m/s 751 mmHg 67%
    07:00 +13°C° 0 mm 4 m/s 751 mmHg 65%
    08:00 +14°C° 0 mm 4 m/s 750 mmHg 63%
    09:00 +15°C° 0 mm 5 m/s 750 mmHg 60%
    10:00 +16°C° 0 mm 5 m/s 750 mmHg 55%
    11:00 +19°C° 0 mm 5 m/s 750 mmHg 50%
    12:00 +21°C° 0 mm 5 m/s 750 mmHg 45%
    13:00 +21°C° 0 mm 5 m/s 750 mmHg 43%
    14:00 +22°C° 0 mm 4 m/s 749 mmHg 42%
    15:00 +22°C° 0 mm 4 m/s 749 mmHg 40%
    16:00 +21°C° 0 mm 4 m/s 749 mmHg 44%
    17:00 +20°C° 0 mm 3 m/s 749 mmHg 49%
    18:00 +18°C° 0 mm 2 m/s 748 mmHg 53%
    19:00 +18°C° 0 mm 2 m/s 748 mmHg 57%
    20:00 +17°C° 0 mm 2 m/s 748 mmHg 60%
    21:00 +16°C° 0 mm 2 m/s 748 mmHg 63%
    22:00 +16°C° 0 mm 2 m/s 748 mmHg 66%
    23:00 +15°C° 0 mm 1 m/s 748 mmHg 70%

    Amanhã, 20 Outubro, Sábado

    Tempo Temperatura Precipitação Vento Pressão Humidade
    00:00 +15°C° 0 mm 1 m/s 747 mmHg 73%
    01:00 +14°C° 0 mm 1 m/s 747 mmHg 75%
    02:00 +14°C° 0 mm 1 m/s 747 mmHg 77%
    03:00 +14°C° 0 mm 1 m/s 747 mmHg 79%
    04:00 +13°C° 0 mm 1 m/s 747 mmHg 80%
    05:00 +13°C° 0 mm 1 m/s 747 mmHg 81%
    06:00 +13°C° 0 mm 1 m/s 747 mmHg 83%
    07:00 +14°C° 0 mm 1 m/s 747 mmHg 78%
    08:00 +15°C° 0 mm 1 m/s 747 mmHg 74%
    09:00 +15°C° 0 mm 1 m/s 747 mmHg 70%
    10:00 +18°C° 0 mm 1 m/s 747 mmHg 63%
    11:00 +20°C° 0 mm 1 m/s 747 mmHg 57%
    12:00 +21°C° 0 mm 1 m/s 747 mmHg 51%
    13:00 +21°C° 0 mm 2 m/s 747 mmHg 48%
    14:00 +21°C° 0 mm 2 m/s 747 mmHg 45%
    15:00 +23°C° 0 mm 2 m/s 747 mmHg 43%
    16:00 +21°C° 0 mm 2 m/s 747 mmHg 46%
    17:00 +20°C° 0 mm 2 m/s 747 mmHg 50%
    18:00 +18°C° 0 mm 2 m/s 747 mmHg 54%
    19:00 +19°C° 0 mm 1 m/s 747 mmHg 56%
    20:00 +18°C° 0 mm 1 m/s 747 mmHg 59%
    21:00 +18°C° 0 mm 1 m/s 747 mmHg 62%
    22:00 +16°C° 0 mm 1 m/s 747 mmHg 64%
    23:00 +16°C° 0 mm 1 m/s 746 mmHg 66%

    Depois de amanhã, 21 Outubro, Domingo

    Tempo Temperatura Precipitação Vento Pressão Humidade
    00:00 +15°C° 0 mm 1 m/s 746 mmHg 68%
    01:00 +15°C° 0 mm 1 m/s 746 mmHg 70%
    02:00 +14°C° 0 mm 1 m/s 746 mmHg 72%
    03:00 +14°C° 0 mm 1 m/s 746 mmHg 74%
    04:00 +14°C° 0 mm 1 m/s 746 mmHg 76%
    05:00 +13°C° 0 mm 1 m/s 746 mmHg 78%
    06:00 +13°C° 0 mm 1 m/s 746 mmHg 80%
    07:00 +14°C° 0 mm 1 m/s 746 mmHg 76%
    08:00 +15°C° 0 mm 1 m/s 746 mmHg 72%
    09:00 +16°C° 0 mm 1 m/s 746 mmHg 68%
    10:00 +18°C° 0 mm 1 m/s 746 mmHg 63%
    11:00 +19°C° 0 mm 1 m/s 746 mmHg 58%
    12:00 +21°C° 0 mm 1 m/s 747 mmHg 53%
    13:00 +21°C° 0 mm 1 m/s 747 mmHg 53%
    14:00 +21°C° 0 mm 1 m/s 747 mmHg 53%
    15:00 +21°C° 0 mm 1 m/s 747 mmHg 53%
    16:00 +20°C° 0.2 mm 1 m/s 747 mmHg 57%
    17:00 +19°C° 0.2 mm 1 m/s 747 mmHg 62%
    18:00 +18°C° 0.2 mm 1 m/s 747 mmHg 66%
    19:00 +18°C° 0.1 mm 1 m/s 747 mmHg 69%
    20:00 +16°C° 0.1 mm 1 m/s 747 mmHg 73%
    21:00 +15°C° 0.1 mm 1 m/s 747 mmHg 76%
    22:00 +15°C° 0 mm 1 m/s 747 mmHg 78%
    23:00 +15°C° 0 mm 1 m/s 747 mmHg 80%

    22 Outubro, Segunda-feira

    Tempo Temperatura Precipitação Vento Pressão Humidade
    00:00 +14°C° 0 mm 1 m/s 747 mmHg 82%
    01:00 +14°C° 0 mm 1 m/s 747 mmHg 84%
    02:00 +14°C° 0 mm 1 m/s 747 mmHg 86%
    03:00 +13°C° 0 mm 1 m/s 747 mmHg 87%
    04:00 +13°C° 0 mm 2 m/s 747 mmHg 88%
    05:00 +13°C° 0 mm 2 m/s 747 mmHg 89%
    06:00 +13°C° 0 mm 2 m/s 747 mmHg 90%
    07:00 +14°C° 0 mm 2 m/s 747 mmHg 87%
    08:00 +14°C° 0 mm 3 m/s 747 mmHg 85%
    09:00 +14°C° 0 mm 3 m/s 747 mmHg 83%
    10:00 +16°C° 0.4 mm 3 m/s 747 mmHg 82%
    11:00 +16°C° 0.4 mm 3 m/s 748 mmHg 81%
    12:00 +17°C° 0.4 mm 3 m/s 748 mmHg 79%
    13:00 +16°C° 0.7 mm 3 m/s 747 mmHg 81%
    14:00 +16°C° 0.7 mm 3 m/s 747 mmHg 83%
    15:00 +16°C° 0.7 mm 3 m/s 747 mmHg 85%
    16:00 +16°C° 0.3 mm 2 m/s 747 mmHg 86%
    17:00 +16°C° 0.3 mm 2 m/s 747 mmHg 87%
    18:00 +15°C° 0.3 mm 2 m/s 747 mmHg 89%
    19:00 +15°C° 0.2 mm 1 m/s 747 mmHg 90%
    20:00 +15°C° 0.2 mm 1 m/s 746 mmHg 91%
    21:00 +15°C° 0.2 mm 1 m/s 746 mmHg 92%
    22:00 +14°C° 0.1 mm 1 m/s 746 mmHg 93%
    23:00 +14°C° 0.1 mm 1 m/s 746 mmHg 93%

    23 Outubro, Terça-feira

    Tempo Temperatura Precipitação Vento Pressão Humidade
    00:00 +14°C° 0.1 mm 1 m/s 746 mmHg 94%
    01:00 +14°C° 0 mm 1 m/s 746 mmHg 94%
    02:00 +13°C° 0 mm 1 m/s 746 mmHg 95%
    03:00 +13°C° 0 mm 1 m/s 745 mmHg 95%
    04:00 +13°C° 0 mm 1 m/s 745 mmHg 95%
    05:00 +13°C° 0 mm 1 m/s 745 mmHg 95%
    06:00 +13°C° 0 mm 1 m/s 745 mmHg 95%
    07:00 +13°C° 0 mm 1 m/s 745 mmHg 92%
    08:00 +13°C° 0 mm 0 m/s 745 mmHg 90%
    09:00 +13°C° 0 mm 0 m/s 746 mmHg 87%
    10:00 +14°C° 0 mm 0 m/s 746 mmHg 82%
    11:00 +15°C° 0 mm 0 m/s 746 mmHg 77%
    12:00 +18°C° 0 mm 1 m/s 746 mmHg 72%
    13:00 +18°C° 0.1 mm 1 m/s 745 mmHg 71%
    14:00 +18°C° 0.1 mm 1 m/s 745 mmHg 69%
    15:00 +19°C° 0.1 mm 1 m/s 745 mmHg 68%
    16:00 +18°C° 0.1 mm 1 m/s 745 mmHg 71%
    17:00 +16°C° 0.1 mm 1 m/s 745 mmHg 74%
    18:00 +16°C° 0.1 mm 1 m/s 745 mmHg 77%
    19:00 +15°C° 0 mm 1 m/s 745 mmHg 78%
    20:00 +15°C° 0 mm 1 m/s 745 mmHg 80%
    21:00 +15°C° 0 mm 1 m/s 745 mmHg 82%
    22:00 +14°C° 0 mm 1 m/s 744 mmHg 83%
    23:00 +14°C° 0 mm 1 m/s 744 mmHg 85%

    24 Outubro, Quarta-feira

    Tempo Temperatura Precipitação Vento Pressão Humidade
    00:00 +13°C° 0 mm 1 m/s 744 mmHg 86%
    01:00 +13°C° 0 mm 1 m/s 744 mmHg 86%
    02:00 +13°C° 0 mm 1 m/s 744 mmHg 85%
    03:00 +13°C° 0 mm 1 m/s 743 mmHg 85%
    04:00 +13°C° 0 mm 1 m/s 743 mmHg 85%
    05:00 +13°C° 0 mm 1 m/s 743 mmHg 86%
    06:00 +12°C° 0 mm 1 m/s 743 mmHg 86%
    07:00 +13°C° 0 mm 1 m/s 743 mmHg 84%
    08:00 +13°C° 0 mm 1 m/s 742 mmHg 81%
    09:00 +14°C° 0 mm 1 m/s 742 mmHg 79%
    10:00 +14°C° 0.2 mm 1 m/s 742 mmHg 77%
    11:00 +15°C° 0.2 mm 1 m/s 741 mmHg 75%
    12:00 +15°C° 0.2 mm 1 m/s 741 mmHg 74%
    13:00 +15°C° 0.2 mm 1 m/s 740 mmHg 73%
    14:00 +15°C° 0.2 mm 1 m/s 740 mmHg 72%
    15:00 +15°C° 0.2 mm 2 m/s 739 mmHg 71%
    16:00 +15°C° 0.1 mm 2 m/s 739 mmHg 71%
    17:00 +14°C° 0.1 mm 2 m/s 738 mmHg 72%
    18:00 +14°C° 0.1 mm 2 m/s 738 mmHg 72%
    19:00 +13°C° 0 mm 2 m/s 738 mmHg 73%
    20:00 +12°C° 0 mm 2 m/s 738 mmHg 74%
    21:00 +11°C° 0 mm 3 m/s 737 mmHg 75%
    22:00 +10°C° 0 mm 3 m/s 737 mmHg 74%
    23:00 +10°C° 0 mm 3 m/s 737 mmHg 72%
    Mostrar mais